Year,Month,Day,Hour,Minute,Value (Times are PST for temperature in C)
2015,07,03,00,00,18.00
2015,07,03,00,01,18.00
2015,07,03,00,02,17.90
2015,07,03,00,03,17.90
2015,07,03,00,04,17.90
2015,07,03,00,05,17.90
2015,07,03,00,06,17.90
2015,07,03,00,07,17.90
2015,07,03,00,08,17.90
2015,07,03,00,09,17.90
2015,07,03,00,10,17.90
2015,07,03,00,11,18.00
2015,07,03,00,12,17.90
2015,07,03,00,13,17.90
2015,07,03,00,14,17.90
2015,07,03,00,15,17.80
2015,07,03,00,16,17.70
2015,07,03,00,17,17.70
2015,07,03,00,18,17.60
2015,07,03,00,19,17.60
2015,07,03,00,20,17.60
2015,07,03,00,21,17.60
2015,07,03,00,22,17.60
2015,07,03,00,23,17.50
2015,07,03,00,24,17.50
2015,07,03,00,25,17.50
2015,07,03,00,26,17.40
2015,07,03,00,27,17.40
2015,07,03,00,28,17.40
2015,07,03,00,29,17.40
2015,07,03,00,30,17.40
2015,07,03,00,31,17.40
2015,07,03,00,32,17.40
2015,07,03,00,33,17.30
2015,07,03,00,34,17.30
2015,07,03,00,35,17.30
2015,07,03,00,36,17.30
2015,07,03,00,37,17.30
2015,07,03,00,38,17.20
2015,07,03,00,39,17.20
2015,07,03,00,40,17.20
2015,07,03,00,41,17.20
2015,07,03,00,42,17.20
2015,07,03,00,43,17.10
2015,07,03,00,44,17.10
2015,07,03,00,45,17.10
2015,07,03,00,46,17.10
2015,07,03,00,47,17.20
2015,07,03,00,48,17.20
2015,07,03,00,49,17.20
2015,07,03,00,50,17.20
2015,07,03,00,51,17.20
2015,07,03,00,52,17.20
2015,07,03,00,53,17.10
2015,07,03,00,54,17.10
2015,07,03,00,55,17.10
2015,07,03,00,56,17.00
2015,07,03,00,57,17.00
2015,07,03,00,58,16.90
2015,07,03,00,59,16.90
2015,07,03,01,00,16.80
2015,07,03,01,01,16.80
2015,07,03,01,02,16.80
2015,07,03,01,03,16.80
2015,07,03,01,04,16.80
2015,07,03,01,05,16.80
2015,07,03,01,06,16.80
2015,07,03,01,07,16.70
2015,07,03,01,08,16.70
2015,07,03,01,09,16.70
2015,07,03,01,10,16.70
2015,07,03,01,11,16.70
2015,07,03,01,12,16.70
2015,07,03,01,13,16.70
2015,07,03,01,14,16.70
2015,07,03,01,15,16.70
2015,07,03,01,16,16.60
2015,07,03,01,17,16.70
2015,07,03,01,18,16.70
2015,07,03,01,19,16.70
2015,07,03,01,20,16.70
2015,07,03,01,21,16.60
2015,07,03,01,22,16.60
2015,07,03,01,23,16.60
2015,07,03,01,24,16.60
2015,07,03,01,25,16.50
2015,07,03,01,26,16.50
2015,07,03,01,27,16.50
2015,07,03,01,28,16.40
2015,07,03,01,29,16.40
2015,07,03,01,30,16.40
2015,07,03,01,31,16.50
2015,07,03,01,32,16.50
2015,07,03,01,33,16.50
2015,07,03,01,34,16.50
2015,07,03,01,35,16.50
2015,07,03,01,36,16.50
2015,07,03,01,37,16.50
2015,07,03,01,38,16.50
2015,07,03,01,39,16.50
2015,07,03,01,40,16.50
2015,07,03,01,41,16.50
2015,07,03,01,42,16.40
2015,07,03,01,43,16.40
2015,07,03,01,44,16.40
2015,07,03,01,45,16.40
2015,07,03,01,46,16.40
2015,07,03,01,47,16.40
2015,07,03,01,48,16.40
2015,07,03,01,49,16.40
2015,07,03,01,50,16.30
2015,07,03,01,51,16.30
2015,07,03,01,52,16.30
2015,07,03,01,53,16.30
2015,07,03,01,54,16.30
2015,07,03,01,55,16.30
2015,07,03,01,56,16.20
2015,07,03,01,57,16.20
2015,07,03,01,58,16.20
2015,07,03,01,59,16.20
2015,07,03,02,00,16.20
2015,07,03,02,01,16.10
2015,07,03,02,02,16.10
2015,07,03,02,03,16.20
2015,07,03,02,04,16.10
2015,07,03,02,05,16.10
2015,07,03,02,06,16.10
2015,07,03,02,07,16.10
2015,07,03,02,08,16.10
2015,07,03,02,09,16.00
2015,07,03,02,10,16.00
2015,07,03,02,11,15.90
2015,07,03,02,12,15.90
2015,07,03,02,13,15.90
2015,07,03,02,14,15.90
2015,07,03,02,15,15.90
2015,07,03,02,16,15.90
2015,07,03,02,17,15.90
2015,07,03,02,18,15.80
2015,07,03,02,19,15.80
2015,07,03,02,20,15.80
2015,07,03,02,21,15.80
2015,07,03,02,22,15.70
2015,07,03,02,23,15.70
2015,07,03,02,24,15.70
2015,07,03,02,25,15.70
2015,07,03,02,26,15.70
2015,07,03,02,27,15.70
2015,07,03,02,28,15.60
2015,07,03,02,29,15.70
2015,07,03,02,30,15.70
2015,07,03,02,31,15.70
2015,07,03,02,32,15.70
2015,07,03,02,33,15.70
2015,07,03,02,34,15.70
2015,07,03,02,35,15.70
2015,07,03,02,36,15.70
2015,07,03,02,37,15.80
2015,07,03,02,38,15.80
2015,07,03,02,39,15.80
2015,07,03,02,40,15.80
2015,07,03,02,41,15.80
2015,07,03,02,42,15.90
2015,07,03,02,43,15.90
2015,07,03,02,44,15.90
2015,07,03,02,45,15.90
2015,07,03,02,46,15.90
2015,07,03,02,47,15.90
2015,07,03,02,48,15.90
2015,07,03,02,49,15.90
2015,07,03,02,50,15.90
2015,07,03,02,51,15.80
2015,07,03,02,52,15.80
2015,07,03,02,53,15.80
2015,07,03,02,54,15.80
2015,07,03,02,55,15.70
2015,07,03,02,56,15.70
2015,07,03,02,57,15.70
2015,07,03,02,58,15.70
2015,07,03,02,59,15.70
2015,07,03,03,00,15.70
2015,07,03,03,01,15.70
2015,07,03,03,02,15.70
2015,07,03,03,03,15.70
2015,07,03,03,04,15.70
2015,07,03,03,05,15.60
2015,07,03,03,06,15.70
2015,07,03,03,07,15.70
2015,07,03,03,08,15.70
2015,07,03,03,09,15.60
2015,07,03,03,10,15.60
2015,07,03,03,11,15.60
2015,07,03,03,12,15.70
2015,07,03,03,13,15.80
2015,07,03,03,14,15.80
2015,07,03,03,15,15.90
2015,07,03,03,16,16.00
2015,07,03,03,17,16.00
2015,07,03,03,18,16.10
2015,07,03,03,19,16.10
2015,07,03,03,20,16.20
2015,07,03,03,21,16.20
2015,07,03,03,22,16.30
2015,07,03,03,23,16.30
2015,07,03,03,24,16.30
2015,07,03,03,25,16.30
2015,07,03,03,26,16.40
2015,07,03,03,27,16.40
2015,07,03,03,28,16.50
2015,07,03,03,29,16.50
2015,07,03,03,30,16.50
2015,07,03,03,31,16.50
2015,07,03,03,32,16.50
2015,07,03,03,33,16.40
2015,07,03,03,34,16.40
2015,07,03,03,35,16.40
2015,07,03,03,36,16.30
2015,07,03,03,37,16.30
2015,07,03,03,38,16.40
2015,07,03,03,39,16.40
2015,07,03,03,40,16.40
2015,07,03,03,41,16.40
2015,07,03,03,42,16.40
2015,07,03,03,43,16.50
2015,07,03,03,44,16.50
2015,07,03,03,45,16.60
2015,07,03,03,46,16.80
2015,07,03,03,47,16.90
2015,07,03,03,48,17.00
2015,07,03,03,49,17.10
2015,07,03,03,50,17.20
2015,07,03,03,51,17.30
2015,07,03,03,52,17.40
2015,07,03,03,53,17.50
2015,07,03,03,54,17.60
2015,07,03,03,55,17.70
2015,07,03,03,56,17.90
2015,07,03,03,57,18.10
2015,07,03,03,58,18.30
2015,07,03,03,59,18.60
2015,07,03,04,00,18.70
2015,07,03,04,01,18.90
2015,07,03,04,02,18.90
2015,07,03,04,03,18.80
2015,07,03,04,04,18.70
2015,07,03,04,05,18.50
2015,07,03,04,06,18.40
2015,07,03,04,07,18.30
2015,07,03,04,08,18.20
2015,07,03,04,09,18.10
2015,07,03,04,10,18.10
2015,07,03,04,11,18.10
2015,07,03,04,12,18.10
2015,07,03,04,13,18.10
2015,07,03,04,14,18.10
2015,07,03,04,15,18.00
2015,07,03,04,16,17.90
2015,07,03,04,17,17.80
2015,07,03,04,18,17.70
2015,07,03,04,19,17.60
2015,07,03,04,20,17.50
2015,07,03,04,21,17.50
2015,07,03,04,22,17.40
2015,07,03,04,23,17.50
2015,07,03,04,24,17.50
2015,07,03,04,25,17.60
2015,07,03,04,26,17.60
2015,07,03,04,27,17.60
2015,07,03,04,28,17.60
2015,07,03,04,29,17.60
2015,07,03,04,30,17.60
2015,07,03,04,31,17.60
2015,07,03,04,32,17.60
2015,07,03,04,33,17.50
2015,07,03,04,34,17.40
2015,07,03,04,35,17.40
2015,07,03,04,36,17.30
2015,07,03,04,37,17.30
2015,07,03,04,38,17.30
2015,07,03,04,39,17.20
2015,07,03,04,40,17.20
2015,07,03,04,41,17.10
2015,07,03,04,42,17.10
2015,07,03,04,43,17.10
2015,07,03,04,44,17.00
2015,07,03,04,45,17.00
2015,07,03,04,46,17.10
2015,07,03,04,47,17.10
2015,07,03,04,48,17.10
2015,07,03,04,49,17.10
2015,07,03,04,50,17.20
2015,07,03,04,51,17.30
2015,07,03,04,52,17.40
2015,07,03,04,53,17.80
2015,07,03,04,54,18.10
2015,07,03,04,55,18.30
2015,07,03,04,56,18.50
2015,07,03,04,57,18.70
2015,07,03,04,58,18.90
2015,07,03,04,59,19.10
2015,07,03,05,00,19.30
2015,07,03,05,01,19.40
2015,07,03,05,02,19.60
2015,07,03,05,03,19.60
2015,07,03,05,04,19.70
2015,07,03,05,05,19.70
2015,07,03,05,06,19.70
2015,07,03,05,07,19.70
2015,07,03,05,08,19.70
2015,07,03,05,09,19.70
2015,07,03,05,10,19.70
2015,07,03,05,11,19.70
2015,07,03,05,12,19.70
2015,07,03,05,13,19.70
2015,07,03,05,14,19.60
2015,07,03,05,15,19.60
2015,07,03,05,16,19.50
2015,07,03,05,17,19.40
2015,07,03,05,18,19.30
2015,07,03,05,19,19.20
2015,07,03,05,20,19.10
2015,07,03,05,21,19.20
2015,07,03,05,22,19.30
2015,07,03,05,23,19.40
2015,07,03,05,24,19.40
2015,07,03,05,25,19.50
2015,07,03,05,26,19.60
2015,07,03,05,27,19.80
2015,07,03,05,28,19.90
2015,07,03,05,29,20.00
2015,07,03,05,30,20.10
2015,07,03,05,31,20.10
2015,07,03,05,32,20.10
2015,07,03,05,33,20.10
2015,07,03,05,34,20.10
2015,07,03,05,35,20.10
2015,07,03,05,36,20.10
2015,07,03,05,37,20.00
2015,07,03,05,38,19.90
2015,07,03,05,39,19.90
2015,07,03,05,40,19.80
2015,07,03,05,41,19.80
2015,07,03,05,42,19.80
2015,07,03,05,43,19.70
2015,07,03,05,44,19.70
2015,07,03,05,45,19.70
2015,07,03,05,46,19.60
2015,07,03,05,47,19.50
2015,07,03,05,48,19.40
2015,07,03,05,49,19.30
2015,07,03,05,50,19.30
2015,07,03,05,51,19.30
2015,07,03,05,52,19.20
2015,07,03,05,53,19.10
2015,07,03,05,54,19.00
2015,07,03,05,55,19.00
2015,07,03,05,56,19.00
2015,07,03,05,57,19.10
2015,07,03,05,58,19.20
2015,07,03,05,59,19.30
2015,07,03,06,00,19.30
2015,07,03,06,01,19.30
2015,07,03,06,02,19.30
2015,07,03,06,03,19.30
2015,07,03,06,04,19.40
2015,07,03,06,05,19.40
2015,07,03,06,06,19.40
2015,07,03,06,07,19.50
2015,07,03,06,08,19.50
2015,07,03,06,09,19.50
2015,07,03,06,10,19.40
2015,07,03,06,11,19.40
2015,07,03,06,12,19.30
2015,07,03,06,13,19.30
2015,07,03,06,14,19.20
2015,07,03,06,15,19.20
2015,07,03,06,16,19.20
2015,07,03,06,17,19.30
2015,07,03,06,18,19.30
2015,07,03,06,19,19.40
2015,07,03,06,20,19.40
2015,07,03,06,21,19.40
2015,07,03,06,22,19.40
2015,07,03,06,23,19.40
2015,07,03,06,24,19.40
2015,07,03,06,25,19.40
2015,07,03,06,26,19.40
2015,07,03,06,27,19.50
2015,07,03,06,28,19.50
2015,07,03,06,29,19.60
2015,07,03,06,30,19.60
2015,07,03,06,31,19.60
2015,07,03,06,32,19.60
2015,07,03,06,33,19.60
2015,07,03,06,34,19.60
2015,07,03,06,35,19.50
2015,07,03,06,36,19.50
2015,07,03,06,37,19.50
2015,07,03,06,38,19.50
2015,07,03,06,39,19.50
2015,07,03,06,40,19.50
2015,07,03,06,41,19.50
2015,07,03,06,42,19.50
2015,07,03,06,43,19.50
2015,07,03,06,44,19.60
2015,07,03,06,45,19.60
2015,07,03,06,46,19.60
2015,07,03,06,47,19.60
2015,07,03,06,48,19.60
2015,07,03,06,49,19.60
2015,07,03,06,50,19.60
2015,07,03,06,51,19.60
2015,07,03,06,52,19.60
2015,07,03,06,53,19.60
2015,07,03,06,54,19.50
2015,07,03,06,55,19.50
2015,07,03,06,56,19.60
2015,07,03,06,57,19.60
2015,07,03,06,58,19.60
2015,07,03,06,59,19.60
2015,07,03,07,00,19.60
2015,07,03,07,01,19.60
2015,07,03,07,02,19.60
2015,07,03,07,03,19.60
2015,07,03,07,04,19.60
2015,07,03,07,05,19.60
2015,07,03,07,06,19.60
2015,07,03,07,07,19.60
2015,07,03,07,08,19.60
2015,07,03,07,09,19.60
2015,07,03,07,10,19.60
2015,07,03,07,11,19.70
2015,07,03,07,12,19.70
2015,07,03,07,13,19.80
2015,07,03,07,14,19.80
2015,07,03,07,15,19.80
2015,07,03,07,16,19.80
2015,07,03,07,17,19.90
2015,07,03,07,18,19.90
2015,07,03,07,19,19.90
2015,07,03,07,20,19.90
2015,07,03,07,21,19.90
2015,07,03,07,22,19.90
2015,07,03,07,23,19.90
2015,07,03,07,24,19.90
2015,07,03,07,25,19.90
2015,07,03,07,26,19.90
2015,07,03,07,27,19.90
2015,07,03,07,28,19.90
2015,07,03,07,29,19.90
2015,07,03,07,30,19.90
2015,07,03,07,31,20.00
2015,07,03,07,32,20.00
2015,07,03,07,33,20.00
2015,07,03,07,34,20.00
2015,07,03,07,35,20.00
2015,07,03,07,36,20.00
2015,07,03,07,37,20.00
2015,07,03,07,38,20.00
2015,07,03,07,39,20.00
2015,07,03,07,40,20.10
2015,07,03,07,41,20.10
2015,07,03,07,42,20.10
2015,07,03,07,43,20.10
2015,07,03,07,44,20.10
2015,07,03,07,45,20.10
2015,07,03,07,46,20.10
2015,07,03,07,47,20.20
2015,07,03,07,48,20.20
2015,07,03,07,49,20.20
2015,07,03,07,50,20.20
2015,07,03,07,51,20.20
2015,07,03,07,52,20.20
2015,07,03,07,53,20.20
2015,07,03,07,54,20.20
2015,07,03,07,55,20.30
2015,07,03,07,56,20.30
2015,07,03,07,57,20.20
2015,07,03,07,58,20.20
2015,07,03,07,59,20.30
2015,07,03,08,00,20.30
2015,07,03,08,01,20.30
2015,07,03,08,02,20.30
2015,07,03,08,03,20.30
2015,07,03,08,04,20.30
2015,07,03,08,05,20.30
2015,07,03,08,06,20.30
2015,07,03,08,07,20.30
2015,07,03,08,08,20.30
2015,07,03,08,09,20.30
2015,07,03,08,10,20.30
2015,07,03,08,11,20.30
2015,07,03,08,12,20.30
2015,07,03,08,13,20.30
2015,07,03,08,14,20.30
2015,07,03,08,15,20.30
2015,07,03,08,16,20.30
2015,07,03,08,17,20.30
2015,07,03,08,18,20.30
2015,07,03,08,19,20.30
2015,07,03,08,20,20.30
2015,07,03,08,21,20.30
2015,07,03,08,22,20.30
2015,07,03,08,23,20.30
2015,07,03,08,24,20.30
2015,07,03,08,25,20.30
2015,07,03,08,26,20.30
2015,07,03,08,27,20.30
2015,07,03,08,28,20.30
2015,07,03,08,29,20.30
2015,07,03,08,30,20.30
2015,07,03,08,31,20.30
2015,07,03,08,32,20.30
2015,07,03,08,33,20.30
2015,07,03,08,34,20.30
2015,07,03,08,35,20.40
2015,07,03,08,36,20.40
2015,07,03,08,37,20.50
2015,07,03,08,38,20.50
2015,07,03,08,39,20.50
2015,07,03,08,40,20.60
2015,07,03,08,41,20.60
2015,07,03,08,42,20.60
2015,07,03,08,43,20.50
2015,07,03,08,44,20.50
2015,07,03,08,45,20.60
2015,07,03,08,46,20.60
2015,07,03,08,47,20.60
2015,07,03,08,48,20.60
2015,07,03,08,49,20.70
2015,07,03,08,50,20.70
2015,07,03,08,51,20.80
2015,07,03,08,52,20.80
2015,07,03,08,53,20.90
2015,07,03,08,54,20.90
2015,07,03,08,55,21.00
2015,07,03,08,56,21.00
2015,07,03,08,57,21.10
2015,07,03,08,58,21.10
2015,07,03,08,59,21.10
2015,07,03,09,00,21.20
2015,07,03,09,01,21.20
2015,07,03,09,02,21.30
2015,07,03,09,03,21.30
2015,07,03,09,04,21.40
2015,07,03,09,05,21.50
2015,07,03,09,06,21.50
2015,07,03,09,07,21.60
2015,07,03,09,08,21.60
2015,07,03,09,09,21.60
2015,07,03,09,10,21.60
2015,07,03,09,11,21.70
2015,07,03,09,12,21.80
2015,07,03,09,13,21.80
2015,07,03,09,14,21.80
2015,07,03,09,15,21.80
2015,07,03,09,16,21.80
2015,07,03,09,17,21.80
2015,07,03,09,18,21.80
2015,07,03,09,19,21.80
2015,07,03,09,20,21.80
2015,07,03,09,21,21.80
2015,07,03,09,22,21.80
2015,07,03,09,23,21.80
2015,07,03,09,24,21.90
2015,07,03,09,25,21.90
2015,07,03,09,26,22.00
2015,07,03,09,27,22.00
2015,07,03,09,28,22.00
2015,07,03,09,29,22.00
2015,07,03,09,30,21.90
2015,07,03,09,31,21.90
2015,07,03,09,32,21.90
2015,07,03,09,33,22.00
2015,07,03,09,34,22.10
2015,07,03,09,35,22.10
2015,07,03,09,36,22.20
2015,07,03,09,37,22.20
2015,07,03,09,38,22.10
2015,07,03,09,39,21.90
2015,07,03,09,40,21.80
2015,07,03,09,41,21.70
2015,07,03,09,42,21.70
2015,07,03,09,43,21.50
2015,07,03,09,44,21.40
2015,07,03,09,45,21.30
2015,07,03,09,46,21.30
2015,07,03,09,47,21.30
2015,07,03,09,48,21.30
2015,07,03,09,49,21.40
2015,07,03,09,50,21.30
2015,07,03,09,51,21.30
2015,07,03,09,52,21.30
2015,07,03,09,53,21.40
2015,07,03,09,54,21.40
2015,07,03,09,55,21.50
2015,07,03,09,56,21.50
2015,07,03,09,57,21.60
2015,07,03,09,58,21.70
2015,07,03,09,59,21.80
2015,07,03,10,00,21.80
2015,07,03,10,01,21.90
2015,07,03,10,02,22.00
2015,07,03,10,03,22.00
2015,07,03,10,04,22.00
2015,07,03,10,05,22.00
2015,07,03,10,06,22.10
2015,07,03,10,07,22.20
2015,07,03,10,08,22.20
2015,07,03,10,09,22.30
2015,07,03,10,10,22.30
2015,07,03,10,11,22.30
2015,07,03,10,12,22.30
2015,07,03,10,13,22.30
2015,07,03,10,14,22.30
2015,07,03,10,15,22.30
2015,07,03,10,16,22.40
2015,07,03,10,17,22.50
2015,07,03,10,18,22.70
2015,07,03,10,19,22.70
2015,07,03,10,20,22.70
2015,07,03,10,21,22.70
2015,07,03,10,22,22.70
2015,07,03,10,23,22.70
2015,07,03,10,24,22.50
2015,07,03,10,25,22.40
2015,07,03,10,26,22.30
2015,07,03,10,27,22.20
2015,07,03,10,28,22.10
2015,07,03,10,29,22.10
2015,07,03,10,30,22.20
2015,07,03,10,31,22.40
2015,07,03,10,32,22.40
2015,07,03,10,33,22.50
2015,07,03,10,34,22.60
2015,07,03,10,35,22.50
2015,07,03,10,36,22.30
2015,07,03,10,37,22.30
2015,07,03,10,38,22.20
2015,07,03,10,39,22.20
2015,07,03,10,40,22.20
2015,07,03,10,41,22.20
2015,07,03,10,42,22.20
2015,07,03,10,43,22.20
2015,07,03,10,44,22.10
2015,07,03,10,45,22.00
2015,07,03,10,46,21.90
2015,07,03,10,47,21.90
2015,07,03,10,48,21.90
2015,07,03,10,49,22.00
2015,07,03,10,50,22.10
2015,07,03,10,51,22.20
2015,07,03,10,52,22.30
2015,07,03,10,53,22.30
2015,07,03,10,54,22.20
2015,07,03,10,55,22.20
2015,07,03,10,56,22.20
2015,07,03,10,57,22.20
2015,07,03,10,58,22.10
2015,07,03,10,59,22.10
2015,07,03,11,00,22.00
2015,07,03,11,01,22.00
2015,07,03,11,02,22.00
2015,07,03,11,03,22.00
2015,07,03,11,04,22.10
2015,07,03,11,05,22.30
2015,07,03,11,06,22.40
2015,07,03,11,07,22.50
2015,07,03,11,08,22.50
2015,07,03,11,09,22.30
2015,07,03,11,10,22.20
2015,07,03,11,11,22.00
2015,07,03,11,12,22.00
2015,07,03,11,13,22.10
2015,07,03,11,14,22.20
2015,07,03,11,15,22.20
2015,07,03,11,16,22.30
2015,07,03,11,17,22.50
2015,07,03,11,18,22.60
2015,07,03,11,19,22.70
2015,07,03,11,20,22.80
2015,07,03,11,21,22.80
2015,07,03,11,22,22.70
2015,07,03,11,23,22.70
2015,07,03,11,24,22.50
2015,07,03,11,25,22.30
2015,07,03,11,26,22.10
2015,07,03,11,27,22.00
2015,07,03,11,28,22.00
2015,07,03,11,29,22.00
2015,07,03,11,30,22.10
2015,07,03,11,31,22.20
2015,07,03,11,32,22.30
2015,07,03,11,33,22.30
2015,07,03,11,34,22.40
2015,07,03,11,35,22.40
2015,07,03,11,36,22.50
2015,07,03,11,37,22.50
2015,07,03,11,38,22.60
2015,07,03,11,39,22.60
2015,07,03,11,40,22.70
2015,07,03,11,41,22.70
2015,07,03,11,42,22.80
2015,07,03,11,43,22.90
2015,07,03,11,44,23.00
2015,07,03,11,45,23.10
2015,07,03,11,46,23.10
2015,07,03,11,47,23.10
2015,07,03,11,48,23.20
2015,07,03,11,49,23.40
2015,07,03,11,50,23.50
2015,07,03,11,51,23.60
2015,07,03,11,52,23.70
2015,07,03,11,53,23.80
2015,07,03,11,54,23.90
2015,07,03,11,55,24.00
2015,07,03,11,56,23.90
2015,07,03,11,57,23.80
2015,07,03,11,58,23.70
2015,07,03,11,59,23.60
2015,07,03,12,00,23.50
2015,07,03,12,01,23.40
2015,07,03,12,02,23.40
2015,07,03,12,03,23.40
2015,07,03,12,04,23.50
2015,07,03,12,05,23.60
2015,07,03,12,06,23.60
2015,07,03,12,07,23.50
2015,07,03,12,08,23.40
2015,07,03,12,09,23.20
2015,07,03,12,10,23.00
2015,07,03,12,11,22.90
2015,07,03,12,12,23.00
2015,07,03,12,13,23.10
2015,07,03,12,14,23.30
2015,07,03,12,15,23.40
2015,07,03,12,16,23.60
2015,07,03,12,17,23.80
2015,07,03,12,18,24.00
2015,07,03,12,19,24.10
2015,07,03,12,20,24.30
2015,07,03,12,21,24.40
2015,07,03,12,22,24.50
2015,07,03,12,23,24.50
2015,07,03,12,24,24.50
2015,07,03,12,25,24.50
2015,07,03,12,26,24.40
2015,07,03,12,27,24.40
2015,07,03,12,28,24.40
2015,07,03,12,29,24.40
2015,07,03,12,30,24.40
2015,07,03,12,31,24.30
2015,07,03,12,32,24.20
2015,07,03,12,33,24.20
2015,07,03,12,34,24.10
2015,07,03,12,35,24.00
2015,07,03,12,36,23.90
2015,07,03,12,37,23.90
2015,07,03,12,38,23.80
2015,07,03,12,39,23.90
2015,07,03,12,40,24.00
2015,07,03,12,41,24.10
2015,07,03,12,42,24.20
2015,07,03,12,43,24.30
2015,07,03,12,44,24.40
2015,07,03,12,45,24.50
2015,07,03,12,46,24.70
2015,07,03,12,47,24.80
2015,07,03,12,48,24.90
2015,07,03,12,49,24.90
2015,07,03,12,50,24.90
2015,07,03,12,51,24.80
2015,07,03,12,52,24.80
2015,07,03,12,53,24.70
2015,07,03,12,54,24.50
2015,07,03,12,55,24.20
2015,07,03,12,56,23.90
2015,07,03,12,57,23.60
2015,07,03,12,58,23.50
2015,07,03,12,59,23.40
2015,07,03,13,00,23.50
2015,07,03,13,01,23.70
2015,07,03,13,02,23.90
2015,07,03,13,03,24.10
2015,07,03,13,04,24.40
2015,07,03,13,05,24.60
2015,07,03,13,06,24.80
2015,07,03,13,07,24.90
2015,07,03,13,08,25.00
2015,07,03,13,09,25.10
2015,07,03,13,10,25.10
2015,07,03,13,11,24.90
2015,07,03,13,12,24.80
2015,07,03,13,13,24.80
2015,07,03,13,14,24.70
2015,07,03,13,15,24.60
2015,07,03,13,16,24.50
2015,07,03,13,17,24.40
2015,07,03,13,18,24.50
2015,07,03,13,19,24.60
2015,07,03,13,20,24.70
2015,07,03,13,21,24.80
2015,07,03,13,22,25.00
2015,07,03,13,23,25.10
2015,07,03,13,24,25.30
2015,07,03,13,25,25.40
2015,07,03,13,26,25.50
2015,07,03,13,27,25.70
2015,07,03,13,28,25.80
2015,07,03,13,29,25.90
2015,07,03,13,30,25.90
2015,07,03,13,31,25.90
2015,07,03,13,32,25.90
2015,07,03,13,33,25.80
2015,07,03,13,34,25.80
2015,07,03,13,35,25.70
2015,07,03,13,36,25.70
2015,07,03,13,37,25.50
2015,07,03,13,38,25.50
2015,07,03,13,39,25.50
2015,07,03,13,40,25.40
2015,07,03,13,41,25.40
2015,07,03,13,42,25.40
2015,07,03,13,43,25.40
2015,07,03,13,44,25.50
2015,07,03,13,45,25.60
2015,07,03,13,46,25.50
2015,07,03,13,47,25.40
2015,07,03,13,48,25.30
2015,07,03,13,49,25.30
2015,07,03,13,50,25.40
2015,07,03,13,51,25.50
2015,07,03,13,52,25.40
2015,07,03,13,53,25.30
2015,07,03,13,54,25.30
2015,07,03,13,55,25.30
2015,07,03,13,56,25.40
2015,07,03,13,57,25.40
2015,07,03,13,58,25.30
2015,07,03,13,59,25.30
2015,07,03,14,00,25.30
2015,07,03,14,01,25.30
2015,07,03,14,02,25.30
2015,07,03,14,03,25.40
2015,07,03,14,04,25.40
2015,07,03,14,05,25.50
2015,07,03,14,06,25.50
2015,07,03,14,07,25.50
2015,07,03,14,08,25.40
2015,07,03,14,09,25.30
2015,07,03,14,10,25.20
2015,07,03,14,11,25.20
2015,07,03,14,12,25.30
2015,07,03,14,13,25.40
2015,07,03,14,14,25.60
2015,07,03,14,15,25.70
2015,07,03,14,16,25.80
2015,07,03,14,17,25.90
2015,07,03,14,18,26.00
2015,07,03,14,19,26.10
2015,07,03,14,20,26.20
2015,07,03,14,21,26.00
2015,07,03,14,22,26.00
2015,07,03,14,23,26.00
2015,07,03,14,24,26.00
2015,07,03,14,25,25.90
2015,07,03,14,26,25.80
2015,07,03,14,27,25.80
2015,07,03,14,28,25.60
2015,07,03,14,29,25.50
2015,07,03,14,30,25.40
2015,07,03,14,31,25.40
2015,07,03,14,32,25.30
2015,07,03,14,33,25.30
2015,07,03,14,34,25.20
2015,07,03,14,35,25.00
2015,07,03,14,36,24.90
2015,07,03,14,37,24.90
2015,07,03,14,38,24.90
2015,07,03,14,39,24.90
2015,07,03,14,40,25.00
2015,07,03,14,41,25.00
2015,07,03,14,42,25.10
2015,07,03,14,43,25.30
2015,07,03,14,44,25.30
2015,07,03,14,45,25.40
2015,07,03,14,46,25.50
2015,07,03,14,47,25.60
2015,07,03,14,48,25.60
2015,07,03,14,49,25.70
2015,07,03,14,50,25.80
2015,07,03,14,51,25.90
2015,07,03,14,52,26.00
2015,07,03,14,53,26.10
2015,07,03,14,54,26.10
2015,07,03,14,55,26.00
2015,07,03,14,56,25.90
2015,07,03,14,57,25.80
2015,07,03,14,58,25.80
2015,07,03,14,59,25.80
2015,07,03,15,00,25.80
2015,07,03,15,01,25.90
2015,07,03,15,02,25.80
2015,07,03,15,03,25.80
2015,07,03,15,04,25.80
2015,07,03,15,05,25.80
2015,07,03,15,06,25.80
2015,07,03,15,07,25.80
2015,07,03,15,08,25.90
2015,07,03,15,09,25.80
2015,07,03,15,10,25.80
2015,07,03,15,11,25.90
2015,07,03,15,12,26.10
2015,07,03,15,13,26.10
2015,07,03,15,14,26.10
2015,07,03,15,15,26.10
2015,07,03,15,16,26.20
2015,07,03,15,17,26.20
2015,07,03,15,18,26.30
2015,07,03,15,19,26.30
2015,07,03,15,20,26.30
2015,07,03,15,21,26.40
2015,07,03,15,22,26.50
2015,07,03,15,23,26.50
2015,07,03,15,24,26.60
2015,07,03,15,25,26.70
2015,07,03,15,26,26.70
2015,07,03,15,27,26.70
2015,07,03,15,28,26.70
2015,07,03,15,29,26.70
2015,07,03,15,30,26.80
2015,07,03,15,31,26.90
2015,07,03,15,32,26.90
2015,07,03,15,33,26.70
2015,07,03,15,34,26.70
2015,07,03,15,35,26.70
2015,07,03,15,36,26.80
2015,07,03,15,37,26.80
2015,07,03,15,38,26.80
2015,07,03,15,39,26.90
2015,07,03,15,40,26.90
2015,07,03,15,41,26.70
2015,07,03,15,42,26.70
2015,07,03,15,43,26.70
2015,07,03,15,44,26.70
2015,07,03,15,45,26.70
2015,07,03,15,46,26.80
2015,07,03,15,47,26.90
2015,07,03,15,48,26.90
2015,07,03,15,49,26.90
2015,07,03,15,50,26.90
2015,07,03,15,51,27.00
2015,07,03,15,52,27.10
2015,07,03,15,53,27.10
2015,07,03,15,54,27.10
2015,07,03,15,55,27.20
2015,07,03,15,56,27.30
2015,07,03,15,57,27.30
2015,07,03,15,58,27.20
2015,07,03,15,59,27.20
2015,07,03,16,00,27.20
2015,07,03,16,01,27.20
2015,07,03,16,02,27.40
2015,07,03,16,03,27.50
2015,07,03,16,04,27.60
2015,07,03,16,05,27.60
2015,07,03,16,06,27.60
2015,07,03,16,07,27.50
2015,07,03,16,08,27.50
2015,07,03,16,09,27.40
2015,07,03,16,10,27.40
2015,07,03,16,11,27.30
2015,07,03,16,12,27.20
2015,07,03,16,13,27.00
2015,07,03,16,14,27.00
2015,07,03,16,15,27.10
2015,07,03,16,16,27.10
2015,07,03,16,17,27.20
2015,07,03,16,18,27.30
2015,07,03,16,19,27.30
2015,07,03,16,20,27.30
2015,07,03,16,21,27.30
2015,07,03,16,22,27.30
2015,07,03,16,23,27.30
2015,07,03,16,24,27.30
2015,07,03,16,25,27.30
2015,07,03,16,26,27.30
2015,07,03,16,27,27.30
2015,07,03,16,28,27.20
2015,07,03,16,29,27.00
2015,07,03,16,30,26.90
2015,07,03,16,31,26.80
2015,07,03,16,32,26.80
2015,07,03,16,33,26.80
2015,07,03,16,34,26.80
2015,07,03,16,35,26.80
2015,07,03,16,36,26.90
2015,07,03,16,37,26.90
2015,07,03,16,38,26.90
2015,07,03,16,39,27.00
2015,07,03,16,40,27.10
2015,07,03,16,41,27.30
2015,07,03,16,42,27.40
2015,07,03,16,43,27.50
2015,07,03,16,44,27.40
2015,07,03,16,45,27.40
2015,07,03,16,46,27.30
2015,07,03,16,47,27.30
2015,07,03,16,48,27.30
2015,07,03,16,49,27.30
2015,07,03,16,50,27.30
2015,07,03,16,51,27.30
2015,07,03,16,52,27.30
2015,07,03,16,53,27.30
2015,07,03,16,54,27.40
2015,07,03,16,55,27.40
2015,07,03,16,56,27.50
2015,07,03,16,57,27.50
2015,07,03,16,58,27.30
2015,07,03,16,59,27.30
2015,07,03,17,00,27.30
2015,07,03,17,01,27.40
2015,07,03,17,02,27.50
2015,07,03,17,03,27.50
2015,07,03,17,04,27.60
2015,07,03,17,05,27.60
2015,07,03,17,06,27.70
2015,07,03,17,07,27.70
2015,07,03,17,08,27.80
2015,07,03,17,09,27.80
2015,07,03,17,10,27.70
2015,07,03,17,11,27.70
2015,07,03,17,12,27.60
2015,07,03,17,13,27.60
2015,07,03,17,14,27.60
2015,07,03,17,15,27.70
2015,07,03,17,16,27.80
2015,07,03,17,17,27.80
2015,07,03,17,18,27.90
2015,07,03,17,19,27.90